Temperature
19 20 20 20 20 20 20 20 20 20 20 20 20 20 20 20 20 20 20 20 20 20 20 20 20 20 20 20 20 20 20 20 20 19 19 19 19 19 19 19 19 19 19
20 20 20 20 20 20 20 20 20 20 20 20 20 20 20 20 20 20 20 20 20 20 20 20 20 20 20 20 20 20 20 19 19 19 19 19 19 19 19 19 19 19 19
21 20 20 20 20 20 20 20 20 20 19 19 19 19 20 20 20 20 20 20 20 20 20 20 20 19 19 19 19 19 19 19 19 19 19 19 19 19 19 19 19 19 19
21 20 20 20 20 20 20 20 20 19 19 19 19 19 19 20 20 20 20 20 20 20 20 19 19 19 19 19 19 19 19 19 19 19 19 19 19 19 19 19 19 19 19
21 21 20 20 20 20 20 20 20 19 19 19 19 19 19 19 19 19 19 19 19 19 19 19 19 19 19 19 19 19 19 19 19 19 19 19 19 19 19 19 19 19 19
21 21 21 20 20 20 20 20 19 19 19 19 19 19 19 19 19 19 19 19 19 19 19 19 19 19 19 19 19 19 18 18 19 19 19 19 19 19 19 19 19 19 19
21 21 21 21 20 20 20 20 19 19 19 19 19 19 19 19 19 18 18 19 19 19 19 19 19 19 19 19 19 18 18 18 18 18 18 19 19 19 19 19 19 19 19
21 21 21 21 21 20 20 20 19 19 19 19 19 19 19 19 19 18 18 18 18 19 19 19 19 19 19 19 19 18 18 18 18 18 18 19 19 19 19 19 19 19 19
21 21 21 21 21 20 20 19 19 19 19 19 19 19 19 19 19 18 18 18 18 18 19 19 19 19 19 19 19 18 18 18 18 18 18 18 18 19 19 19 19 19 19
21 21 21 21 21 20 20 19 19 19 19 19 19 19 19 19 19 19 19 19 18 19 19 19 19 19 19 19 19 18 18 18 18 18 18 18 18 18 18 19 19 19 18
21 21 21 21 21 20 20 20 19 19 19 19 19 19 19 19 19 19 19 19 19 19 19 19 19 19 19 19 18 18 18 18 18 18 18 18 18 18 18 19 19 18 18
21 21 21 21 21 20 20 20 19 19 19 19 19 19 19 19 19 19 19 19 19 19 19 19 19 19 19 19 18 18 18 18 18 18 17 17 18 18 18 19 19 19 19
22 22 21 21 21 21 20 20 20 19 19 19 19 19 19 19 19 19 19 19 19 19 19 19 19 19 19 19 18 18 18 18 18 17 17 17 18 18 18 18 19 19 19
22 22 22 21 21 21 21 20 20 20 19 19 19 19 19 19 19 19 19 18 19 19 19 19 19 19 19 18 18 18 18 18 18 18 18 18 18 18 18 18 18 18 18
23 22 22 22 22 21 21 21 20 20 20 19 19 19 19 19 19 19 18 18 18 19 19 19 19 18 19 18 18 18 18 18 18 18 18 18 18 18 18 18 18 18 18
22 22 22 22 22 22 21 21 21 20 20 19 19 19 19 19 18 18 18 18 18 19 19 19 19 19 19 19 18 18 18 18 18 18 18 18 18 18 18 18 18 18 18
21 21 21 22 22 22 21 21 21 21 20 20 19 19 19 18 18 18 18 18 18 19 19 19 19 19 19 18 18 18 18 18 18 18 18 18 17 18 18 18 18 18 18
21 21 21 21 21 21 21 21 21 21 21 20 20 19 19 19 18 18 18 18 18 18 19 19 18 19 18 19 18 18 18 18 18 18 18 17 17 17 18 18 18 18 18
20 20 20 20 20 21 21 21 21 21 21 21 20 20 19 19 19 18 19 19 19 19 19 18 18 18 18 18 18 18 18 18 18 18 18 17 17 17 17 18 18 18 18
19 20 20 20 20 20 20 20 20 20 20 20 20 20 19 19 19 19 19 19 19 19 19 18 18 18 18 18 18 18 18 18 18 18 17 17 17 17 17 17 18 18 18
19 19 19 20 20 20 20 20 20 20 20 20 20 20 20 19 19 19 19 19 19 18 19 19 18 18 18 18 18 18 18 18 17 17 17 17 17 17 17 17 17 17 17
17 18 18 18 19 19 20 20 20 20 20 20 20 20 20 19 19 19 19 19 19 18 18 18 18 18 18 18 18 17 17 17 17 17 17 17 17 17 17 17 17 17 17
17 17 17 17 18 18 19 19 20 20 19 19 19 19 19 19 19 19 18 18 18 18 18 18 18 18 18 17 17 17 17 17 17 17 17 17 17 17 17 17 17 17 17
16 16 17 17 17 18 18 19 19 20 19 19 19 19 19 19 18 18 18 18 18 18 17 17 17 17 17 17 17 17 17 17 17 17 17 17 17 17 17 17 17 17 17
15 15 16 16 16 17 17 18 18 19 19 19 19 19 18 18 18 17 17 17 17 17 17 17 17 17 17 17 16 16 16 16 16 16 16 17 17 17 17 17 17 17 17
14 15 15 15 15 16 16 17 17 18 18 18 18 18 18 17 17 17 17 16 16 16 16 16 16 16 16 16 16 16 16 16 16 16 16 16 16 16 16 17 17 17 17
Wind_Speed
8 11 17 17 17 16 16 15 15 14 13 12 12 12 12 12 11 11 11 11 11 11 11 10 9 9 10 10 10 10 11 11 11 10 10 11 13 14 14 12 10 9 10
12 16 18 18 18 17 16 15 14 14 12 12 12 12 12 11 11 10 10 10 10 10 10 9 9 8 9 9 9 9 9 10 10 10 10 10 11 12 13 12 11 9 10
16 17 18 18 18 17 17 16 15 14 13 13 12 12 12 11 11 10 10 9 9 9 9 8 7 7 8 7 7 7 7 8 8 8 7 7 8 11 12 12 11 10 9
17 17 17 18 17 17 16 15 15 14 14 13 12 11 11 10 10 10 9 9 9 8 8 7 6 6 7 6 5 5 6 6 6 5 5 5 6 9 10 10 10 10 9
16 17 18 19 17 16 15 15 15 15 14 13 13 11 10 10 9 9 8 8 8 8 7 6 5 5 6 6 5 4 4 5 6 6 7 6 6 8 8 8 8 8 8
14 16 18 18 17 16 15 14 14 14 13 13 13 12 11 10 10 9 8 8 8 7 7 6 5 5 5 5 5 3 3 4 6 8 7 6 6 7 7 6 6 7 7
14 16 18 18 17 15 14 14 14 13 13 13 13 12 11 11 10 10 9 8 8 7 6 5 5 5 5 5 4 3 2 3 7 7 6 5 5 6 6 5 5 5 6
16 16 18 19 17 16 14 14 14 13 13 13 13 12 11 11 10 10 10 8 7 6 5 4 4 4 5 5 5 4 2 3 6 7 7 6 6 7 6 5 5 5 5
14 14 14 17 17 16 15 14 14 14 14 14 13 12 12 11 11 11 11 10 8 6 5 4 3 4 4 4 5 4 2 3 6 7 6 6 7 7 6 5 5 4 5
13 12 11 14 15 15 15 15 15 15 15 15 14 13 13 12 12 12 12 11 9 7 6 5 4 3 3 3 3 3 2 4 5 6 6 6 7 7 6 5 4 4 4
13 11 11 11 14 15 15 15 16 16 16 16 15 15 14 12 12 13 13 13 11 9 8 7 6 5 4 4 4 4 1 4 5 6 5 6 6 6 6 5 4 3 4
15 14 13 13 12 14 14 14 14 14 15 16 15 15 14 13 12 12 13 14 13 11 9 9 8 7 6 6 6 4 1 4 7 8 7 7 6 5 5 5 4 3 3
18 17 15 15 12 12 9 11 11 12 13 14 16 16 14 13 11 11 11 12 12 12 9 8 8 8 7 6 6 4 2 4 10 10 9 8 6 5 5 5 4 3 2
16 18 17 17 14 13 11 9 10 9 9 10 15 16 13 8 7 8 8 10 10 10 9 8 7 8 9 9 8 5 4 6 10 10 9 8 6 6 6 6 5 5 4
14 17 18 18 17 14 11 9 9 9 10 13 14 16 15 8 5 6 7 9 10 11 9 7 7 7 7 8 9 7 7 9 11 11 9 8 7 6 5 6 7 7 6
3 7 12 17 17 15 13 11 10 10 12 13 13 16 17 13 8 6 6 7 9 11 11 8 7 5 5 4 4 6 9 11 11 11 10 8 7 5 5 6 6 8 8
7 6 3 8 12 15 15 14 10 10 12 11 13 17 18 15 12 9 8 8 10 13 11 6 6 5 4 4 5 6 7 9 10 10 10 8 6 5 5 5 5 6 7
10 9 8 4 4 10 11 11 9 10 10 10 13 15 17 18 16 10 9 10 13 12 7 5 4 4 4 4 4 4 4 5 7 9 9 8 7 6 5 6 5 5 6
11 10 10 9 7 3 7 9 8 8 10 10 12 12 16 18 17 11 9 9 12 7 6 6 4 4 4 3 3 3 3 4 4 6 7 9 10 8 7 7 7 6 6
10 10 11 10 9 7 3 4 5 7 8 8 9 11 14 14 15 11 6 8 8 6 6 5 5 3 4 4 3 2 1 3 3 4 5 8 10 11 10 8 7 7 7
13 12 11 11 10 7 3 2 4 7 8 8 8 10 11 11 11 9 8 8 7 7 7 7 5 5 3 3 3 2 2 2 3 4 3 4 6 11 11 10 9 8 8
13 13 11 11 10 9 5 4 4 5 5 7 6 6 8 8 8 8 8 7 7 6 6 5 5 4 3 3 4 3 1 4 3 2 2 4 5 6 8 11 11 10 10
14 13 12 11 10 10 10 5 3 2 2 2 4 5 4 4 5 5 5 5 5 5 6 6 6 6 4 2 2 4 4 5 3 3 2 2 4 5 5 8 11 12 12
13 12 11 11 11 10 10 6 3 3 5 6 5 4 3 3 3 4 3 4 4 3 4 5 5 4 5 3 2 2 3 4 3 2 3 2 1 4 5 5 9 13 14
12 11 10 10 10 10 10 8 5 3 3 3 3 6 6 5 5 5 3 3 3 4 4 5 4 5 4 4 3 2 2 1 2 3 2 3 3 2 3 4 5 10 15
11 10 10 9 9 10 9 8 6 4 2 1 1 4 4 3 4 6 6 5 4 3 3 3 4 5 4 3 2 3 3 3 4 4 4 4 3 3 3 3 4 6 13
Wind_Direction
158 165 154 147 139 134 132 130 127 121 115 109 104 100 96 92 89 86 83 81 79 80 80 85 93 101 109 112 111 105 98 91 84 80 71 64 64 64 66 72 73 77 88
154 159 154 148 142 139 136 134 131 127 122 117 111 106 102 100 98 93 90 87 83 80 79 81 91 101 111 112 109 102 95 87 83 83 77 67 68 71 70 72 76 83 90
149 156 154 151 147 144 141 139 136 133 128 123 118 114 110 107 105 102 99 97 92 88 85 84 92 105 115 116 113 106 94 84 82 85 90 79 73 76 74 71 73 79 87
149 153 156 155 151 148 145 143 142 138 134 131 128 124 123 119 113 108 106 104 101 97 93 91 99 112 121 126 119 106 90 80 79 86 112 104 83 81 79 76 74 76 81
148 153 159 157 155 152 149 146 144 141 140 139 135 135 136 131 123 117 115 114 111 106 101 99 105 120 127 131 128 114 94 79 77 101 115 113 98 94 90 84 82 83 83
148 154 161 160 159 157 155 152 148 146 147 144 143 143 141 136 131 126 124 121 119 114 108 105 112 131 139 143 145 137 109 91 94 119 124 114 100 97 97 98 95 92 91
150 157 164 165 165 164 162 160 157 156 155 152 149 147 143 140 141 137 132 128 126 123 118 113 116 133 147 155 160 160 145 104 117 127 123 110 101 97 98 107 114 107 104
155 161 168 170 171 172 172 170 168 166 164 162 160 157 154 152 153 152 146 142 138 133 130 126 125 135 150 159 165 172 163 102 130 135 129 121 114 105 103 112 126 122 118
157 162 169 173 176 178 179 180 179 176 174 172 171 171 167 165 164 162 159 157 158 158 158 158 156 154 157 166 173 180 165 95 131 148 139 135 129 120 111 110 118 130 129
160 166 170 174 178 181 185 188 188 185 183 182 181 180 177 176 175 171 170 171 176 182 184 189 202 202 193 194 199 202 154 90 141 162 148 149 139 129 120 110 109 120 133
168 174 176 179 182 184 186 192 192 190 190 188 187 187 184 183 181 178 180 184 190 196 202 208 219 228 233 240 242 241 140 113 132 144 157 160 151 146 138 126 116 121 138
180 184 184 186 188 186 190 191 190 191 191 189 189 190 187 186 188 188 191 195 200 206 212 222 233 240 246 259 269 275 177 150 150 154 174 177 179 176 163 150 137 130 140
185 187 189 191 191 188 190 185 187 189 188 190 190 191 189 190 198 202 200 204 209 214 218 229 245 253 257 261 269 271 229 186 163 167 185 191 195 196 188 179 169 164 162
187 192 191 192 193 192 190 187 186 187 190 193 196 196 193 194 202 203 197 201 208 215 215 222 235 251 258 259 260 250 213 170 164 169 186 195 198 200 199 197 193 191 195
194 195 193 193 194 192 188 187 187 191 194 197 198 201 200 198 198 194 195 202 213 220 220 217 221 236 247 249 244 225 189 174 169 171 185 194 195 199 203 204 204 202 202
246 214 199 194 193 188 186 188 189 192 195 197 200 202 202 202 199 194 197 203 216 222 224 220 218 220 224 215 196 172 164 170 176 177 182 188 192 197 206 208 207 202 203
8 354 295 211 199 191 190 190 189 192 193 198 203 203 201 202 203 200 202 207 216 222 224 220 220 202 183 175 153 149 155 167 176 182 181 183 187 199 207 206 206 204 205
17 10 6 335 238 209 202 196 192 193 193 199 203 204 205 207 206 202 204 208 210 211 208 189 176 151 160 157 150 158 160 166 175 181 184 188 188 195 206 206 198 195 201
18 12 12 12 2 293 229 212 206 198 197 201 201 203 208 210 210 202 201 199 196 190 186 183 167 152 156 162 166 168 178 186 186 178 186 195 197 197 203 208 202 194 190
18 13 10 5 2 352 313 245 229 216 209 204 201 204 208 210 210 197 191 183 176 172 174 173 160 148 151 159 138 117 214 232 219 192 191 191 198 199 201 202 200 196 189
14 11 7 360 352 352 347 282 233 221 215 213 209 202 206 206 201 186 182 170 163 168 172 163 147 146 148 141 108 58 345 320 262 240 203 181 193 199 198 198 199 196 187
6 2 360 353 345 342 329 280 238 223 218 212 216 207 201 199 192 185 176 169 160 155 159 162 147 147 156 148 134 118 343 330 314 295 229 195 196 192 194 200 203 204 190
359 355 352 346 344 339 331 309 277 233 245 220 219 218 208 189 183 165 161 158 155 157 171 179 168 155 166 189 160 147 163 222 282 313 298 225 191 190 198 199 204 208 199
346 345 345 344 344 343 338 330 296 229 219 215 202 190 161 139 130 125 132 159 160 167 184 193 177 166 157 175 201 191 168 159 171 278 320 321 263 211 208 205 205 206 203
337 339 341 342 347 348 348 342 325 280 244 221 179 162 157 151 147 133 142 175 183 181 190 197 183 177 168 168 178 174 160 153 156 161 249 305 326 288 238 215 200 202 203
333 338 344 347 349 353 358 2 7 9 13 75 141 163 161 156 159 164 172 178 186 185 184 198 192 175 168 160 194 193 174 168 182 171 195 231 266 290 285 246 204 200 204
Height
1536 1538 1539 1541 1542 1543 1544 1545 1547 1548 1548 1549 1549 1549 1550 1550 1550 1550 1551 1551 1551 1551 1551 1552 1552 1553 1553 1554 1554 1555 1555 1556 1556 1556 1557 1557 1556 1556 1556 1555 1554 1553 1553
1535 1538 1540 1542 1543 1544 1545 1546 1547 1548 1549 1549 1550 1550 1551 1551 1551 1551 1551 1552 1552 1552 1552 1552 1553 1554 1554 1555 1556 1556 1557 1557 1557 1557 1558 1558 1558 1558 1557 1557 1556 1555 1555
1535 1538 1540 1542 1543 1544 1546 1547 1547 1548 1549 1550 1550 1551 1552 1552 1553 1553 1553 1553 1552 1553 1553 1553 1554 1554 1555 1556 1557 1558 1558 1558 1558 1558 1559 1559 1559 1559 1559 1558 1557 1557 1556
1536 1538 1540 1542 1544 1545 1546 1547 1548 1549 1549 1550 1551 1552 1552 1553 1554 1554 1554 1554 1554 1553 1553 1554 1554 1555 1556 1557 1558 1559 1559 1559 1559 1559 1560 1560 1560 1560 1560 1559 1559 1558 1558
1536 1539 1541 1543 1544 1546 1547 1548 1549 1549 1550 1550 1551 1552 1553 1554 1554 1555 1555 1555 1555 1554 1554 1555 1555 1556 1557 1557 1558 1559 1560 1560 1560 1560 1561 1561 1561 1561 1561 1561 1560 1559 1559
1537 1539 1541 1543 1545 1546 1547 1548 1549 1550 1550 1551 1552 1553 1554 1554 1555 1555 1555 1555 1555 1555 1555 1555 1556 1556 1557 1558 1559 1560 1561 1561 1561 1561 1561 1562 1562 1562 1561 1562 1561 1561 1560
1537 1540 1542 1543 1545 1546 1548 1549 1549 1550 1551 1552 1552 1553 1554 1555 1555 1555 1555 1555 1555 1556 1556 1556 1556 1556 1557 1558 1559 1560 1561 1562 1562 1562 1563 1563 1563 1562 1562 1562 1562 1562 1561
1538 1540 1542 1544 1545 1546 1547 1548 1549 1550 1551 1552 1553 1553 1554 1555 1555 1555 1556 1555 1555 1556 1556 1556 1557 1557 1557 1558 1559 1560 1562 1562 1563 1564 1564 1564 1564 1563 1563 1563 1563 1562 1562
1539 1540 1542 1543 1545 1546 1547 1548 1549 1550 1551 1551 1553 1553 1554 1554 1555 1555 1556 1556 1556 1556 1556 1556 1557 1557 1558 1558 1559 1561 1562 1563 1564 1564 1565 1565 1565 1564 1564 1564 1563 1563 1562
1539 1540 1541 1543 1544 1545 1546 1547 1548 1549 1550 1551 1552 1553 1553 1554 1555 1555 1555 1556 1556 1556 1556 1556 1557 1558 1558 1559 1560 1561 1562 1563 1564 1565 1565 1565 1565 1565 1565 1564 1564 1563 1563
1538 1540 1541 1542 1543 1544 1545 1546 1547 1547 1548 1549 1550 1552 1552 1553 1554 1555 1555 1555 1556 1556 1556 1556 1557 1558 1558 1559 1560 1562 1563 1564 1564 1565 1565 1565 1565 1565 1564 1564 1564 1563 1563
1536 1537 1539 1540 1541 1542 1543 1544 1545 1546 1547 1548 1549 1550 1551 1552 1553 1554 1555 1555 1555 1556 1556 1557 1557 1558 1559 1560 1561 1562 1563 1564 1564 1565 1565 1565 1564 1564 1563 1563 1563 1563 1563
1533 1534 1536 1537 1539 1540 1541 1542 1543 1544 1545 1546 1547 1548 1550 1551 1552 1553 1554 1554 1555 1556 1556 1557 1558 1559 1560 1561 1562 1562 1563 1564 1564 1564 1564 1564 1563 1562 1561 1561 1562 1562 1563
1531 1532 1533 1535 1536 1538 1539 1540 1541 1542 1543 1544 1545 1546 1548 1549 1550 1552 1553 1553 1554 1555 1556 1557 1558 1559 1560 1561 1561 1562 1562 1563 1563 1564 1563 1562 1561 1560 1560 1560 1560 1561 1561
1530 1530 1531 1532 1533 1535 1536 1537 1538 1539 1541 1542 1543 1544 1546 1547 1549 1550 1552 1553 1554 1555 1556 1557 1558 1558 1559 1560 1560 1561 1562 1562 1563 1563 1562 1561 1560 1559 1559 1559 1559 1559 1560
1531 1530 1530 1530 1531 1532 1533 1535 1536 1537 1538 1539 1541 1542 1544 1546 1547 1549 1550 1552 1554 1555 1556 1557 1557 1558 1558 1559 1560 1560 1561 1562 1562 1562 1562 1561 1560 1559 1559 1558 1558 1559 1559
1530 1530 1530 1530 1530 1530 1531 1532 1533 1534 1535 1536 1538 1540 1541 1543 1545 1547 1548 1550 1552 1554 1555 1555 1556 1557 1557 1558 1559 1560 1560 1561 1561 1561 1561 1561 1560 1559 1558 1558 1558 1558 1558
1528 1528 1528 1529 1529 1529 1529 1530 1531 1532 1533 1534 1535 1536 1538 1540 1542 1544 1545 1547 1550 1551 1553 1554 1555 1556 1557 1558 1559 1559 1560 1560 1560 1560 1560 1560 1560 1559 1559 1558 1558 1558 1558
1527 1527 1526 1526 1526 1527 1527 1528 1529 1529 1530 1531 1532 1533 1534 1536 1538 1540 1542 1544 1547 1548 1550 1552 1553 1554 1555 1556 1557 1558 1558 1559 1559 1559 1559 1559 1559 1559 1559 1559 1558 1558 1557
1526 1525 1524 1523 1523 1523 1524 1525 1526 1527 1527 1528 1528 1529 1531 1533 1535 1536 1538 1541 1543 1545 1547 1549 1551 1552 1553 1554 1555 1556 1557 1557 1557 1557 1557 1557 1557 1558 1558 1558 1558 1557 1557
1525 1523 1521 1521 1520 1520 1520 1520 1521 1522 1523 1524 1525 1526 1527 1529 1531 1533 1534 1536 1539 1541 1543 1545 1547 1549 1550 1551 1552 1553 1554 1554 1555 1555 1555 1555 1555 1556 1556 1557 1557 1557 1557
1524 1522 1520 1518 1517 1516 1516 1516 1517 1518 1519 1520 1521 1522 1523 1525 1527 1529 1530 1532 1534 1537 1539 1541 1543 1545 1546 1548 1549 1550 1551 1552 1552 1552 1552 1553 1553 1554 1554 1555 1556 1556 1556
1523 1520 1518 1516 1514 1512 1512 1512 1512 1513 1514 1515 1516 1516 1518 1521 1522 1524 1527 1529 1530 1533 1535 1537 1538 1540 1542 1544 1545 1546 1547 1547 1548 1549 1549 1550 1551 1551 1552 1553 1554 1554 1555
1523 1520 1517 1514 1511 1509 1507 1507 1507 1508 1509 1509 1510 1512 1513 1515 1516 1519 1521 1524 1526 1528 1530 1532 1534 1535 1537 1539 1541 1542 1544 1544 1545 1545 1546 1547 1548 1549 1550 1550 1551 1552 1552
1524 1520 1516 1513 1510 1507 1504 1503 1502 1502 1503 1504 1506 1507 1508 1508 1510 1512 1514 1517 1520 1522 1525 1527 1529 1531 1532 1534 1536 1537 1539 1540 1542 1543 1543 1544 1545 1546 1547 1547 1548 1549 1550
1523 1519 1515 1511 1508 1505 1502 1500 1499 1498 1498 1499 1500 1502 1503 1504 1506 1508 1510 1512 1514 1517 1519 1521 1523 1526 1528 1530 1531 1533 1535 1536 1537 1539 1540 1541 1542 1543 1543 1544 1544 1545 1546